******** Week 358 almanac for PRN-1 ******** ID: 1 Health: 0 Eccentricity: 0.001527309418 Time of Applicability(s): 319488 Orbital Inclination(rad): 0.9584287994 Rate of Right Ascen(r/s): -7.748894201e-09 SQRT(A) (m 1/2): 5153.583008 Right Ascen at Week(rad): -2.896489789 Argument of Perigee(rad): 0.05120409896 Mean Anom(rad): 0.1361831143 Af0(s): 0.0002607713135 Af1(s/s): -7.275958e-12 week: 358 ******** Week 358 almanac for PRN-2 ******** ID: 2 Health: 0 Eccentricity: 0.01693868637 Time of Applicability(s): 319488 Orbital Inclination(rad): 0.9637617795 Rate of Right Ascen(r/s): -7.668890868e-09 SQRT(A) (m 1/2): 5153.554688 Right Ascen at Week(rad): -3.058984644 Argument of Perigee(rad): -0.8218309565 Mean Anom(rad): 1.571721734 Af0(s): 3.240799561e-05 Af1(s/s): 7.275958e-12 week: 358 ******** Week 358 almanac for PRN-3 ******** ID: 3 Health: 0 Eccentricity: 0.006442070007 Time of Applicability(s): 319488 Orbital Inclination(rad): 0.9929613435 Rate of Right Ascen(r/s): -7.794610391e-09 SQRT(A) (m 1/2): 5153.586426 Right Ascen at Week(rad): -1.9099821 Argument of Perigee(rad): 1.20410938 Mean Anom(rad): -2.030644145 Af0(s): 0.0004469288696 Af1(s/s): -1.091394e-11 week: 358 ******** Week 358 almanac for PRN-4 ******** ID: 4 Health: 0 Eccentricity: 0.003735542297 Time of Applicability(s): 319488 Orbital Inclination(rad): 0.9704669533 Rate of Right Ascen(r/s): -8.148910863e-09 SQRT(A) (m 1/2): 5153.683594 Right Ascen at Week(rad): -0.8388272089 Argument of Perigee(rad): -2.885665412 Mean Anom(rad): 0.9692736245 Af0(s): 3.542269287e-05 Af1(s/s): 3.637979e-12 week: 358 ******** Week 358 almanac for PRN-5 ******** ID: 5 Health: 0 Eccentricity: 0.005385875702 Time of Applicability(s): 319488 Orbital Inclination(rad): 0.9795509958 Rate of Right Ascen(r/s): -7.897471818e-09 SQRT(A) (m 1/2): 5153.649414 Right Ascen at Week(rad): -1.969583021 Argument of Perigee(rad): 1.419274903 Mean Anom(rad): 1.621428554 Af0(s): -0.0001808818359 Af1(s/s): 0 week: 358 ******** Week 358 almanac for PRN-6 ******** ID: 6 Health: 0 Eccentricity: 0.003872871399 Time of Applicability(s): 319488 Orbital Inclination(rad): 0.987340742 Rate of Right Ascen(r/s): -7.440309919e-09 SQRT(A) (m 1/2): 5153.590332 Right Ascen at Week(rad): -2.946281996 Argument of Perigee(rad): -0.5838976531 Mean Anom(rad): -0.6911590876 Af0(s): -0.0004823515625 Af1(s/s): 0 week: 358 ******** Week 358 almanac for PRN-7 ******** ID: 7 Health: 0 Eccentricity: 0.02039766312 Time of Applicability(s): 319488 Orbital Inclination(rad): 0.9513820752 Rate of Right Ascen(r/s): -7.760323248e-09 SQRT(A) (m 1/2): 5153.585449 Right Ascen at Week(rad): 0.1696969992 Argument of Perigee(rad): -1.996110852 Mean Anom(rad): -1.570741649 Af0(s): -0.000119080542 Af1(s/s): -3.637979e-12 week: 358 ******** Week 358 almanac for PRN-8 ******** ID: 8 Health: 0 Eccentricity: 0.01154518127 Time of Applicability(s): 319488 Orbital Inclination(rad): 0.9434784789 Rate of Right Ascen(r/s): -8.354633718e-09 SQRT(A) (m 1/2): 5153.616699 Right Ascen at Week(rad): 2.217489821 Argument of Perigee(rad): 0.5185948626 Mean Anom(rad): 1.263223817 Af0(s): 0.0003873885986 Af1(s/s): -3.637979e-12 week: 358 ******** Week 358 almanac for PRN-9 ******** ID: 9 Health: 0 Eccentricity: 0.003374576569 Time of Applicability(s): 319488 Orbital Inclination(rad): 0.9645767068 Rate of Right Ascen(r/s): -8.251772291e-09 SQRT(A) (m 1/2): 5153.728027 Right Ascen at Week(rad): -0.9029971157 Argument of Perigee(rad): 2.073110246 Mean Anom(rad): 1.855774829 Af0(s): 0.0006082151733 Af1(s/s): 0 week: 358 ******** Week 358 almanac for PRN-10 ******** ID: 10 Health: 0 Eccentricity: 0.01094484329 Time of Applicability(s): 319488 Orbital Inclination(rad): 0.9924999508 Rate of Right Ascen(r/s): -7.817468486e-09 SQRT(A) (m 1/2): 5153.602539 Right Ascen at Week(rad): -1.912490548 Argument of Perigee(rad): -2.257604767 Mean Anom(rad): -3.015504752 Af0(s): -0.0004650170532 Af1(s/s): 0 week: 358 ******** Week 358 almanac for PRN-11 ******** ID: 11 Health: 0 Eccentricity: 0.002222061157 Time of Applicability(s): 319488 Orbital Inclination(rad): 0.9641872195 Rate of Right Ascen(r/s): -7.668890868e-09 SQRT(A) (m 1/2): 5153.525391 Right Ascen at Week(rad): -2.927229326 Argument of Perigee(rad): -2.292715175 Mean Anom(rad): 0.359885525 Af0(s): -0.0003436754883 Af1(s/s): 1.455192e-11 week: 358 ******** Week 358 almanac for PRN-12 ******** ID: 12 Health: 0 Eccentricity: 0.009052276611 Time of Applicability(s): 319488 Orbital Inclination(rad): 0.9588842 Rate of Right Ascen(r/s): -8.034620388e-09 SQRT(A) (m 1/2): 5153.724609 Right Ascen at Week(rad): 1.28731473 Argument of Perigee(rad): 1.556643332 Mean Anom(rad): -2.216683133 Af0(s): -0.0004800905395 Af1(s/s): 0 week: 358 ******** Week 358 almanac for PRN-13 ******** ID: 13 Health: 0 Eccentricity: 0.009963989258 Time of Applicability(s): 319488 Orbital Inclination(rad): 0.9761834286 Rate of Right Ascen(r/s): -8.057478483e-09 SQRT(A) (m 1/2): 5153.620605 Right Ascen at Week(rad): -0.7280371692 Argument of Perigee(rad): 0.9982627156 Mean Anom(rad): 1.008244077 Af0(s): 0.0005426455078 Af1(s/s): 0 week: 358 ******** Week 358 almanac for PRN-14 ******** ID: 14 Health: 0 Eccentricity: 0.006659030914 Time of Applicability(s): 319488 Orbital Inclination(rad): 0.94226208 Rate of Right Ascen(r/s): -8.228914196e-09 SQRT(A) (m 1/2): 5153.592285 Right Ascen at Week(rad): 1.232849424 Argument of Perigee(rad): -2.75596127 Mean Anom(rad): -2.384506848 Af0(s): 0.0005810828979 Af1(s/s): 3.637979e-12 week: 358 ******** Week 358 almanac for PRN-15 ******** ID: 15 Health: 0 Eccentricity: 0.0166053772 Time of Applicability(s): 319488 Orbital Inclination(rad): 0.9423579538 Rate of Right Ascen(r/s): -8.548927526e-09 SQRT(A) (m 1/2): 5153.626953 Right Ascen at Week(rad): -1.046778229 Argument of Perigee(rad): 1.499636996 Mean Anom(rad): 0.2634784278 Af0(s): 0.0003059917725 Af1(s/s): 3.637979e-12 week: 358 ******** Week 358 almanac for PRN-16 ******** ID: 16 Health: 0 Eccentricity: 0.01505279541 Time of Applicability(s): 319488 Orbital Inclination(rad): 0.9580153437 Rate of Right Ascen(r/s): -8.080336578e-09 SQRT(A) (m 1/2): 5153.584961 Right Ascen at Week(rad): 1.304319222 Argument of Perigee(rad): 0.9286036593 Mean Anom(rad): 2.282355936 Af0(s): 0.0001665620239 Af1(s/s): 7.275958e-12 week: 358 ******** Week 358 almanac for PRN-17 ******** ID: 17 Health: 0 Eccentricity: 0.01269435883 Time of Applicability(s): 319488 Orbital Inclination(rad): 0.9592377346 Rate of Right Ascen(r/s): -8.194627053e-09 SQRT(A) (m 1/2): 5153.523926 Right Ascen at Week(rad): 2.322013984 Argument of Perigee(rad): -1.125123601 Mean Anom(rad): 1.182091363 Af0(s): -5.200352783e-05 Af1(s/s): -1.091394e-11 week: 358 ******** Week 358 almanac for PRN-18 ******** ID: 18 Health: 0 Eccentricity: 0.005731105804 Time of Applicability(s): 319488 Orbital Inclination(rad): 0.9722885555 Rate of Right Ascen(r/s): -7.600316584e-09 SQRT(A) (m 1/2): 5153.599121 Right Ascen at Week(rad): -2.951140851 Argument of Perigee(rad): -2.860989893 Mean Anom(rad): -0.8038216625 Af0(s): -0.0003331240478 Af1(s/s): 1.091394e-11 week: 358 ******** Week 358 almanac for PRN-19 ******** ID: 19 Health: 0 Eccentricity: 0.01107978821 Time of Applicability(s): 319488 Orbital Inclination(rad): 0.9584467758 Rate of Right Ascen(r/s): -8.183198006e-09 SQRT(A) (m 1/2): 5153.65625 Right Ascen at Week(rad): 2.365916319 Argument of Perigee(rad): 2.926618505 Mean Anom(rad): 3.011299038 Af0(s): 0.0005456602051 Af1(s/s): 0 week: 358 ******** Week 358 almanac for PRN-20 ******** ID: 20 Health: 255 Eccentricity: 0.000301361084 Time of Applicability(s): 319488 Orbital Inclination(rad): 0.960004725 Rate of Right Ascen(r/s): -8.297488481e-09 SQRT(A) (m 1/2): 5153.635742 Right Ascen at Week(rad): -0.8973259558 Argument of Perigee(rad): 1.349873508 Mean Anom(rad): 0.6802369646 Af0(s): 0 Af1(s/s): 0 week: 358 ******** Week 358 almanac for PRN-21 ******** ID: 21 Health: 0 Eccentricity: 0.0006914138794 Time of Applicability(s): 319488 Orbital Inclination(rad): 0.9623776015 Rate of Right Ascen(r/s): -8.126052768e-09 SQRT(A) (m 1/2): 5153.704102 Right Ascen at Week(rad): -1.903363812 Argument of Perigee(rad): -0.3747332307 Mean Anom(rad): -2.466680806 Af0(s): 0.0003157895386 Af1(s/s): 3.637979e-12 week: 358 ******** Week 358 almanac for PRN-22 ******** ID: 22 Health: 0 Eccentricity: 0.0121216774 Time of Applicability(s): 319488 Orbital Inclination(rad): 0.9574580772 Rate of Right Ascen(r/s): -8.114623721e-09 SQRT(A) (m 1/2): 5153.568848 Right Ascen at Week(rad): 1.307669562 Argument of Perigee(rad): -0.9947914099 Mean Anom(rad): 1.831683167 Af0(s): -3.542269287e-05 Af1(s/s): 3.637979e-12 week: 358 ******** Week 358 almanac for PRN-23 ******** ID: 23 Health: 0 Eccentricity: 0.006016731262 Time of Applicability(s): 319488 Orbital Inclination(rad): 0.9875085212 Rate of Right Ascen(r/s): -7.840326581e-09 SQRT(A) (m 1/2): 5153.654785 Right Ascen at Week(rad): -1.944530373 Argument of Perigee(rad): -2.740819201 Mean Anom(rad): -1.926489246 Af0(s): 0.0004853662598 Af1(s/s): 3.637979e-12 week: 358 ******** Week 358 almanac for PRN-24 ******** ID: 24 Health: 0 Eccentricity: 0.01787519455 Time of Applicability(s): 319488 Orbital Inclination(rad): 0.9353831349 Rate of Right Ascen(r/s): -7.988904198e-09 SQRT(A) (m 1/2): 5153.604004 Right Ascen at Week(rad): 0.06146559154 Argument of Perigee(rad): 1.133919647 Mean Anom(rad): -0.5896425909 Af0(s): -9.19482666e-05 Af1(s/s): 1.455192e-11 week: 358 ******** Week 358 almanac for PRN-25 ******** ID: 25 Health: 0 Eccentricity: 0.01294803619 Time of Applicability(s): 319488 Orbital Inclination(rad): 0.9472954545 Rate of Right Ascen(r/s): -8.126052768e-09 SQRT(A) (m 1/2): 5153.672852 Right Ascen at Week(rad): 1.193589852 Argument of Perigee(rad): 1.156618518 Mean Anom(rad): -2.359139614 Af0(s): 0.0003497048828 Af1(s/s): -3.637979e-12 week: 358 ******** Week 358 almanac for PRN-26 ******** ID: 26 Health: 0 Eccentricity: 0.01099348068 Time of Applicability(s): 319488 Orbital Inclination(rad): 0.9281147025 Rate of Right Ascen(r/s): -8.308917528e-09 SQRT(A) (m 1/2): 5153.651367 Right Ascen at Week(rad): 1.11925957 Argument of Perigee(rad): 0.7087376985 Mean Anom(rad): 3.101762709 Af0(s): -0.0002600176392 Af1(s/s): -7.275958e-12 week: 358 ******** Week 358 almanac for PRN-27 ******** ID: 27 Health: 0 Eccentricity: 0.01432561874 Time of Applicability(s): 319488 Orbital Inclination(rad): 0.952598474 Rate of Right Ascen(r/s): -8.263201338e-09 SQRT(A) (m 1/2): 5153.603516 Right Ascen at Week(rad): 2.249417669 Argument of Perigee(rad): 0.8773100532 Mean Anom(rad): 1.361209461 Af0(s): -3.542269287e-05 Af1(s/s): -1.091394e-11 week: 358 ******** Week 358 almanac for PRN-28 ******** ID: 28 Health: 0 Eccentricity: 0.0004019737244 Time of Applicability(s): 319488 Orbital Inclination(rad): 0.9623296646 Rate of Right Ascen(r/s): -7.680319916e-09 SQRT(A) (m 1/2): 5153.74707 Right Ascen at Week(rad): 0.1438275517 Argument of Perigee(rad): 0.1098331743 Mean Anom(rad): -1.336779993 Af0(s): -0.0004687854248 Af1(s/s): 7.275958e-12 week: 358 ******** Week 358 almanac for PRN-29 ******** ID: 29 Health: 0 Eccentricity: 0.003334522247 Time of Applicability(s): 319488 Orbital Inclination(rad): 0.9618982325 Rate of Right Ascen(r/s): -8.126052768e-09 SQRT(A) (m 1/2): 5153.707031 Right Ascen at Week(rad): 2.338700519 Argument of Perigee(rad): 2.740517723 Mean Anom(rad): 1.231812414 Af0(s): -0.0002946866577 Af1(s/s): 7.275958e-12 week: 358 ******** Week 358 almanac for PRN-30 ******** ID: 30 Health: 0 Eccentricity: 0.008016109467 Time of Applicability(s): 319488 Orbital Inclination(rad): 0.9366354864 Rate of Right Ascen(r/s): -7.920329913e-09 SQRT(A) (m 1/2): 5153.720215 Right Ascen at Week(rad): 0.1608762352 Argument of Perigee(rad): -2.328018829 Mean Anom(rad): -1.721709927 Af0(s): 9.948500976e-05 Af1(s/s): 1.455192e-11 week: 358 ******** Week 358 almanac for PRN-31 ******** ID: 31 Health: 0 Eccentricity: 0.01081609726 Time of Applicability(s): 319488 Orbital Inclination(rad): 0.9551451218 Rate of Right Ascen(r/s): -7.726036106e-09 SQRT(A) (m 1/2): 5153.732422 Right Ascen at Week(rad): 0.1938542006 Argument of Perigee(rad): 0.9380831812 Mean Anom(rad): -2.667461139 Af0(s): -0.0001311393311 Af1(s/s): 3.637979e-12 week: 358 ******** Week 358 almanac for PRN-32 ******** ID: 32 Health: 0 Eccentricity: 0.00931930542 Time of Applicability(s): 319488 Orbital Inclination(rad): 0.9676386763 Rate of Right Ascen(r/s): -8.194627053e-09 SQRT(A) (m 1/2): 5153.671875 Right Ascen at Week(rad): -0.8860311983 Argument of Perigee(rad): -2.006333396 Mean Anom(rad): 1.947826035 Af0(s): -6.858436279e-05 Af1(s/s): 1.818989e-11 week: 358